Location: Ch?enovice
(49.7164°N, 15.2160°E)
Time: 16:25:48
(UTC+00:00)

Cosmos 2237 Rocket - Pass Details

Date: 23 May 2024
Orbit: 833 x 850 km, 71.0° (Epoch: 12 June)

Event Time Altitude Azimuth Distance (km) Brightness Sun altitude
Rises 02:11:51 0° 333° (NNW) 3,427 5.6 -7.4°
Reaches altitude 10° 02:14:33 10° 343° (NNW) 2,486 5.0 -7.0°
Maximum altitude 02:19:46 35° 48° (NE) 1,339 4.2 -6.4°
Drops below altitude 10° 02:24:56 10° 114° (ESE) 2,466 5.0 -5.8°
Sets 02:27:34 0° 123° (ESE) 3,395 5.6 -5.5°
